Torna al catalogo

CZ-2C R/B

AttivoSSO
NORAD 37766·ROCKET BODY·🇨🇳 China

Lanciato Jul 29, 2011 da Jiuquan Satellite Launch Center

Loading…

Prossimi Passaggi (prossime 24 ore)

TLE

AggiornatoSource: Space-Track

Epoca: Sep 14, 2026, 15:44 UTC

1 37766U 11039B   26257.65610545  .00000435  00000-0  79251-4 0  9997
2 37766  98.0924 154.7436 0043314  28.0425 332.3101 14.70454294809942

Traccia CZ-2C R/B in tempo reale con AllMySat

Download on the App Store